Location: Corcelles
(46.1547°N, 4.7234°E)
Time: 08:50:54
(UTC+00:00)

Helios 1B rocket - Pass Details

Date: 14 July 2020
Orbit: 574 x 584 km, 98.1° (Epoch: 14 August)

Event Time Altitude Azimuth Distance (km) Brightness Sun altitude
Rises 00:26:31 0° 12° (NNE) 2,809 7.5 -21.6°
Reaches altitude 10° 00:28:41 10° 11° (N) 1,904 6.2 -21.6°
Maximum altitude 00:32:48 78° 286° (WNW) 597 2.4 -21.4°
Enters shadow 00:33:19 65° 224° (SW) 638 2.3 -21.4°
